• In Uzbekistan
  • List of Countries
  • For 7 days
  • Water Temperature
  • Satellite Maps
  • Weather Map
  • Weather Widgets
  • user-avatar
    Login

    Hourly Weather Zadworze

    Today, 20 April, Friday

    Time Temperature Precipitation Wind Pressure Humidity
    00:00 +8°C° 0 mm 4 mps 721 mmHg 77%
    01:00 +8°C° 0 mm 3 mps 721 mmHg 78%
    02:00 +7°C° 0 mm 2 mps 720 mmHg 87%
    03:00 +6°C° 0 mm 2 mps 720 mmHg 89%
    04:00 +6°C° 0 mm 2 mps 720 mmHg 91%
    05:00 +5°C° 0 mm 2 mps 721 mmHg 93%
    06:00 +6°C° 0 mm 2 mps 721 mmHg 87%
    07:00 +7°C° 0 mm 3 mps 721 mmHg 82%
    08:00 +8°C° 0 mm 3 mps 721 mmHg 76%
    09:00 +10°C° 0 mm 3 mps 721 mmHg 69%
    10:00 +11°C° 0 mm 3 mps 722 mmHg 62%
    11:00 +12°C° 0 mm 4 mps 722 mmHg 55%
    12:00 +13°C° 0 mm 4 mps 722 mmHg 52%
    13:00 +14°C° 0 mm 4 mps 722 mmHg 49%
    14:00 +15°C° 0 mm 4 mps 722 mmHg 46%
    15:00 +16°C° 0 mm 3 mps 721 mmHg 46%
    16:00 +16°C° 0 mm 3 mps 721 mmHg 47%
    17:00 +16°C° 0 mm 3 mps 721 mmHg 47%
    18:00 +14°C° 0 mm 2 mps 720 mmHg 54%
    19:00 +12°C° 0 mm 1 mps 720 mmHg 62%
    20:00 +10°C° 0 mm 1 mps 720 mmHg 69%
    21:00 +9°C° 0 mm 1 mps 720 mmHg 70%
    22:00 +9°C° 0 mm 1 mps 720 mmHg 71%
    23:00 +8°C° 0 mm 1 mps 720 mmHg 73%

    Tomorrow, 21 April, Saturday

    Time Temperature Precipitation Wind Pressure Humidity
    00:00 +8°C° 0 mm 1 mps 719 mmHg 73%
    01:00 +8°C° 0 mm 1 mps 719 mmHg 74%
    02:00 +7°C° 0 mm 1 mps 719 mmHg 74%
    03:00 +6°C° 0 mm 2 mps 718 mmHg 73%
    04:00 +6°C° 0 mm 2 mps 718 mmHg 72%
    05:00 +6°C° 0 mm 2 mps 718 mmHg 72%
    06:00 +8°C° 0 mm 2 mps 718 mmHg 66%
    07:00 +10°C° 0 mm 3 mps 718 mmHg 61%
    08:00 +12°C° 0 mm 3 mps 718 mmHg 56%
    09:00 +14°C° 0 mm 4 mps 718 mmHg 52%
    10:00 +17°C° 0 mm 4 mps 717 mmHg 48%
    11:00 +19°C° 0 mm 4 mps 717 mmHg 43%
    12:00 +19°C° 0 mm 5 mps 717 mmHg 43%
    13:00 +20°C° 0 mm 5 mps 717 mmHg 43%
    14:00 +21°C° 0 mm 5 mps 717 mmHg 43%
    15:00 +21°C° 0 mm 4 mps 716 mmHg 46%
    16:00 +21°C° 0 mm 4 mps 716 mmHg 50%
    17:00 +20°C° 0 mm 4 mps 715 mmHg 53%
    18:00 +18°C° 0.1 mm 3 mps 715 mmHg 61%
    19:00 +16°C° 0.1 mm 3 mps 715 mmHg 70%
    20:00 +14°C° 0.1 mm 2 mps 715 mmHg 78%
    21:00 +14°C° 0 mm 2 mps 715 mmHg 79%
    22:00 +13°C° 0 mm 2 mps 715 mmHg 80%
    23:00 +13°C° 0 mm 2 mps 715 mmHg 80%

    Day after tomorrow, 22 April, Sunday

    Time Temperature Precipitation Wind Pressure Humidity
    00:00 +13°C° 0 mm 1 mps 715 mmHg 82%
    01:00 +12°C° 0 mm 1 mps 715 mmHg 83%
    02:00 +12°C° 0 mm 1 mps 715 mmHg 85%
    03:00 +11°C° 0 mm 1 mps 715 mmHg 87%
    04:00 +10°C° 0 mm 1 mps 715 mmHg 89%
    05:00 +9°C° 0 mm 1 mps 715 mmHg 90%
    06:00 +11°C° 0 mm 1 mps 715 mmHg 83%
    07:00 +12°C° 0 mm 1 mps 715 mmHg 75%
    08:00 +13°C° 0 mm 1 mps 716 mmHg 67%
    09:00 +14°C° 0 mm 2 mps 716 mmHg 60%
    10:00 +14°C° 0 mm 3 mps 716 mmHg 52%
    11:00 +16°C° 0 mm 3 mps 716 mmHg 44%
    12:00 +17°C° 0 mm 3 mps 716 mmHg 42%
    13:00 +18°C° 0 mm 4 mps 715 mmHg 40%
    14:00 +18°C° 0 mm 4 mps 715 mmHg 38%
    15:00 +18°C° 0 mm 3 mps 715 mmHg 40%
    16:00 +18°C° 0 mm 3 mps 715 mmHg 41%
    17:00 +17°C° 0 mm 3 mps 714 mmHg 43%
    18:00 +15°C° 0 mm 2 mps 714 mmHg 50%
    19:00 +13°C° 0 mm 2 mps 714 mmHg 57%
    20:00 +11°C° 0 mm 1 mps 714 mmHg 64%
    21:00 +11°C° 0 mm 1 mps 714 mmHg 64%
    22:00 +10°C° 0 mm 1 mps 714 mmHg 65%
    23:00 +10°C° 0 mm 1 mps 714 mmHg 66%

    23 April, Monday

    Time Temperature Precipitation Wind Pressure Humidity
    00:00 +9°C° 0 mm 1 mps 714 mmHg 66%
    01:00 +9°C° 0 mm 1 mps 714 mmHg 67%
    02:00 +9°C° 0 mm 1 mps 714 mmHg 67%
    03:00 +8°C° 0 mm 1 mps 714 mmHg 68%
    04:00 +8°C° 0 mm 1 mps 713 mmHg 68%
    05:00 +8°C° 0 mm 1 mps 713 mmHg 69%
    06:00 +10°C° 0 mm 1 mps 713 mmHg 65%
    07:00 +12°C° 0 mm 1 mps 714 mmHg 60%
    08:00 +14°C° 0 mm 1 mps 714 mmHg 56%
    09:00 +16°C° 0 mm 1 mps 714 mmHg 53%
    10:00 +19°C° 0 mm 1 mps 714 mmHg 50%
    11:00 +19°C° 0 mm 2 mps 714 mmHg 46%
    12:00 +20°C° 0 mm 2 mps 713 mmHg 46%
    13:00 +21°C° 0 mm 2 mps 713 mmHg 45%
    14:00 +22°C° 0 mm 3 mps 713 mmHg 45%
    15:00 +21°C° 0.1 mm 3 mps 712 mmHg 50%
    16:00 +21°C° 0.1 mm 3 mps 712 mmHg 56%
    17:00 +20°C° 0.1 mm 3 mps 711 mmHg 62%
    18:00 +18°C° 0.9 mm 3 mps 711 mmHg 70%
    19:00 +17°C° 0.9 mm 3 mps 711 mmHg 79%
    20:00 +14°C° 0.9 mm 3 mps 711 mmHg 88%
    21:00 +15°C° 0.7 mm 2 mps 710 mmHg 90%
    22:00 +14°C° 0.7 mm 2 mps 710 mmHg 92%
    23:00 +14°C° 0.7 mm 2 mps 710 mmHg 93%

    24 April, Tuesday

    Time Temperature Precipitation Wind Pressure Humidity
    00:00 +14°C° 0.3 mm 2 mps 710 mmHg 94%
    01:00 +12°C° 0.3 mm 3 mps 710 mmHg 95%
    02:00 +12°C° 0.3 mm 3 mps 711 mmHg 96%
    03:00 +12°C° 0.3 mm 3 mps 711 mmHg 96%
    04:00 +12°C° 0.3 mm 3 mps 711 mmHg 95%
    05:00 +12°C° 0.3 mm 3 mps 711 mmHg 95%
    06:00 +11°C° 0 mm 3 mps 712 mmHg 92%
    07:00 +11°C° 0 mm 3 mps 712 mmHg 88%
    08:00 +11°C° 0 mm 3 mps 713 mmHg 85%
    09:00 +12°C° 0 mm 3 mps 713 mmHg 76%
    10:00 +13°C° 0 mm 3 mps 713 mmHg 68%
    11:00 +16°C° 0 mm 3 mps 714 mmHg 60%
    12:00 +16°C° 0.1 mm 3 mps 714 mmHg 59%
    13:00 +15°C° 0.1 mm 4 mps 714 mmHg 59%
    14:00 +15°C° 0.1 mm 4 mps 713 mmHg 59%
    15:00 +15°C° 0 mm 4 mps 713 mmHg 57%
    16:00 +15°C° 0 mm 4 mps 713 mmHg 56%
    17:00 +15°C° 0 mm 4 mps 713 mmHg 55%
    18:00 +14°C° 0 mm 3 mps 713 mmHg 62%
    19:00 +13°C° 0 mm 2 mps 713 mmHg 69%
    20:00 +11°C° 0 mm 1 mps 713 mmHg 76%
    21:00 +11°C° 0 mm 1 mps 713 mmHg 77%
    22:00 +9°C° 0 mm 2 mps 714 mmHg 78%
    23:00 +9°C° 0 mm 2 mps 714 mmHg 79%

    25 April, Wednesday

    Time Temperature Precipitation Wind Pressure Humidity
    00:00 +9°C° 0 mm 2 mps 714 mmHg 80%
    01:00 +9°C° 0 mm 2 mps 714 mmHg 80%
    02:00 +8°C° 0 mm 2 mps 714 mmHg 81%
    03:00 +9°C° 0 mm 2 mps 714 mmHg 80%
    04:00 +9°C° 0 mm 2 mps 714 mmHg 79%
    05:00 +9°C° 0 mm 2 mps 714 mmHg 79%
    06:00 +10°C° 0 mm 3 mps 714 mmHg 75%
    07:00 +12°C° 0 mm 4 mps 714 mmHg 72%
    08:00 +13°C° 0 mm 4 mps 714 mmHg 68%
    09:00 +15°C° 0 mm 5 mps 714 mmHg 65%
    10:00 +16°C° 0 mm 6 mps 713 mmHg 61%
    11:00 +18°C° 0 mm 7 mps 713 mmHg 58%
    12:00 +18°C° 0.1 mm 7 mps 713 mmHg 58%
    13:00 +20°C° 0.1 mm 7 mps 713 mmHg 58%
    14:00 +20°C° 0.1 mm 7 mps 712 mmHg 58%
    15:00 +20°C° 0.1 mm 7 mps 712 mmHg 59%
    16:00 +20°C° 0.1 mm 6 mps 711 mmHg 60%
    17:00 +20°C° 0.1 mm 6 mps 711 mmHg 61%
    18:00 +19°C° 0.4 mm 5 mps 711 mmHg 64%
    19:00 +17°C° 0.4 mm 5 mps 711 mmHg 68%
    20:00 +16°C° 0.4 mm 5 mps 710 mmHg 72%
    21:00 +15°C° 0.5 mm 4 mps 711 mmHg 78%
    22:00 +13°C° 0.5 mm 4 mps 711 mmHg 85%
    23:00 +12°C° 0.5 mm 3 mps 712 mmHg 92%
    Show more